This demonstration page uses our WeatherBlox Daily Observations layout. Learn more.

Left ArrowRight Arrow

Hourly Observations for March 30, 2020

Temp ( °F °C ) Dew Point ( °F °C ) Humidity (%) Winds ( mph kmh ) Pressure ( in mb ) Visibility ( mi km ) Precip ( " mm )
12:56 am 00:56 Clear 41 5 31 -0.6 67 67 Calm 30.12 1020 10 16 0.00 0.00
1:56 am 01:56 Clear 41 5 30 -1.1 65 65 Calm 30.12 1020 10 16 0.00 0.00
2:56 am 02:56 Clear 40 4.4 30 -1.1 68 68 S 6 9 30.13 1020 10 16 0.00 0.00
3:56 am 03:56 Clear 36 2.2 29 -1.7 76 76 E 3 6 30.14 1021 10 16 0.00 0.00
4:56 am 04:56 Clear 34 1.1 28 -2.2 79 79 ESE 7 11 30.14 1021 10 16 0.00 0.00
5:56 am 05:56 Clear 32 0 28 -2.2 85 85 E 3 6 30.13 1020 10 16 0.00 0.00
6:56 am 06:56 Clear 32 0 28 -2.2 85 85 ESE 3 6 30.14 1021 10 16 0.00 0.00
7:56 am 07:56 Mostly Cloudy 34 1.1 31 -0.6 89 89 E 6 9 30.14 1021 10 16 0.00 0.00
8:56 am 08:56 Mostly Cloudy 41 5 34 1.1 76 76 E 6 9 30.14 1021 10 16 0.00 0.00
9:56 am 09:56 Cloudy 46 7.8 37 2.8 71 71 E 7 11 30.13 1020 10 16 0.00 0.00
10:56 am 10:56 Cloudy 53 11.7 36 2.2 52 52 SE 10 17 30.12 1020 10 16 0.00 0.00
11:56 am 11:56 Mostly Sunny 54 12.2 38 3.3 55 55 E 10 17 30.10 1019 10 16 0.00 0.00
12:56 pm 12:56 Sunny 57 13.9 38 3.3 49 49 ESE 10 17 30.08 1019 10 16 0.00 0.00
1:56 pm 13:56 Sunny 61 16.1 38 3.3 43 43 E 14 22 30.04 1017 10 16 0.00 0.00
2:56 pm 14:56 Sunny 65 18.3 35 1.7 33 33 SE 20 31 30.00 1016 10 16 0.00 0.00
3:56 pm 15:56 Mostly Sunny 65 18.3 35 1.7 33 33 SSE 17 28 29.98 1015 10 16 0.00 0.00
4:56 pm 16:56 Cloudy with Light Rain 60 15.6 38 3.3 44 44 ESE 17 28 29.98 1015 10 16 0.00 0.00
5:56 pm 17:56 Cloudy 60 15.6 39 3.9 46 46 SW 7 11 30.01 1016 10 16 0.00 0.00
6:56 pm 18:56 Cloudy with Light Rain 53 11.7 43 6.1 69 69 SSW 20 31 30.04 1017 10 16 0.00 0.00
7:56 pm 19:56 Cloudy 49 9.4 45 7.2 86 86 ENE 9 15 30.05 1018 10 16 0.01 0.25
8:56 pm 20:56 Cloudy with Light Rain 48 8.9 45 7.2 89 89 ENE 7 11 30.07 1018 10 16 0.00 0.00
9:56 pm 21:56 Cloudy with Light Rain 49 9.4 45 7.2 86 86 W 7 11 30.08 1019 10 16 0.00 0.00
10:56 pm 22:56 Cloudy 48 8.9 45 7.2 89 89 NNW 5 7 30.06 1018 10 16 0.00 0.00
11:56 pm 23:56 Cloudy with Light Rain 46 7.8 44 6.7 93 93 E 6 9 30.06 1018 10 16 0.00 0.00

Powered by AerisWeather